User: anonymous   Login
Location: Unspecified
(0.0000°N, 0.0000°E)
Time: 19:54:15
(UTC+02:00)
Language:

CZ-2C R/B - Orbit

View from above orbital plane
View from above orbital plane
View from above satellite
View from above satellite

Ground track
Ground track

The orbit data is extracted from the following two-line orbital elements,

1 28480U 04046B   15209.10484362  .00000023  00000-0  23380-4 0  9996
2 28480 098.1459 340.1385 0143516 101.7600 004.1426 14.25519680555912
Epoch (UTC): 28 July 2015 02:30:58
Eccentricity: 0.0143516
inclination: 98.1459°
perigee height: 703 km
apogee height: 910 km
right ascension of ascending node: 340.1385°
argument of perigee: 101.7600°
revolutions per day: 14.25519680
mean anomaly at epoch: 4.1426°
orbit number at epoch: 55591

The dashed part of the orbit path shows where the satellite is in the earth's shadow,  

DLR